Home   Weather   Alsdorf   Past weeks

Flag for Germany Past Weather in Alsdorf, North Rhine-Westphalia, Germany — Yesterday and Last 2 Weeks

54 °F


Feels Like: 50 °F
Forecast: 50 / 56 °F
Wind: 13 mph from West

Location: Geilenkirchen Airport

Current Time: Oct 27, 2016 at 2:50:40 PM

Latest Report: Oct 27, 2016 at 1:50 PM

Visibility: 3 mi

Pressure: 30.54 "Hg

Humidity: 88%

Dew Point: 50 °F

Location of AlsdorfLocation

Past Weather in Alsdorf — Graph


Alsdorf Temperature Yesterday

Maximum temperature yesterday: 55 °F (at 11:50 AM)
Minimum temperature yesterday: 41 °F (at 10:50 PM)
Average temperature yesterday: 48 °F

High & Low Weather Summary for the Past Weeks

High61 °F (Oct 17, 4:50 PM)100% (Oct 20, 12:50 AM)30.54 "Hg (Oct 20, 12:50 AM)
Low37 °F (Oct 13, 4:50 AM)55% (Oct 13, 3:50 PM)29.71 "Hg (Oct 14, 3:50 PM)
Average49 °F89%30.08 "Hg
* Reported Oct 12 12:50 PM — Oct 27 12:50 PM, Alsdorf, Weather by CustomWeather, © 2016

Note: Actual official high and low records may vary slightly from our data, if they occured in-between our weather recording intervals... More about our weather records


Alsdorf Weather History for the Previous 24 Hours

Scroll right to see more
Time TempWeatherWind HumidityBarometerVisibility
12:50 PM
Thu, Oct 27
54 °FFog.12 mph88%30.54 "Hg3 mi
11:50 AM54 °FFog.12 mph88%30.51 "Hg3 mi
10:50 AM52 °FFog.9 mph88%30.51 "Hg3 mi
9:50 AM52 °FFog.9 mph88%30.51 "Hg3 mi
8:50 AM50 °FFog.6 mph94%30.51 "Hg3 mi
7:50 AM50 °FFog.7 mph88%30.48 "Hg3 mi
6:50 AM48 °FPartly cloudy.7 mph94%30.48 "Hg4 mi
5:50 AM50 °FPassing clouds.7 mph88%30.45 "Hg4 mi
4:50 AM50 °FPassing clouds.7 mph88%30.45 "Hg4 mi
3:50 AM50 °FFog.6 mph88%30.45 "Hg4 mi
2:50 AM50 °FFog.7 mph88%30.48 "Hg4 mi
1:50 AM50 °FFog.8 mph82%30.45 "Hg3 mi
12:50 AM48 °FFog.5 mph87%30.45 "Hg3 mi
11:50 PM
Wed, Oct 26
43 °FFog.3 mph93%30.45 "Hg2 mi
10:50 PM41 °FFog.2 mph100%30.45 "Hg2 mi
9:50 PM45 °FFog.2 mph93%30.45 "Hg2 mi
8:50 PM45 °FFog.3 mph93%30.42 "Hg2 mi
7:50 PM46 °FFog.2 mph87%30.42 "Hg3 mi
6:50 PM50 °FPassing clouds.3 mph88%30.42 "Hg4 mi
5:50 PM52 °FBroken clouds.1 mph82%30.42 "Hg4 mi
4:50 PM54 °FPartly sunny.3 mph72%30.42 "Hg4 mi
3:50 PM54 °FPassing clouds.5 mph77%30.39 "Hg4 mi
2:50 PM52 °FScattered clouds.8 mph82%30.39 "Hg4 mi
Weather by CustomWeather, © 2016

See weather overviewHow to use our weather pages